Weather in Maksimovka

Russia / Tambov Oblast     52°58′23″N   42°10′29″E
temp.,
°C
wind,
m/s
gust,
m/s
humid.,
%
clouds,
%
prec.,
mm/h
press.,
hPa
HPBL,
m
25 june, sat
sat2500:00+15ne49875 0.0 1013158
03:00+13ne37915 0.0 1014120
06:00+16nne36850 0.0 1015164
09:00+21nne46673 0.0 1015570
12:00+24ne67555 0.0 10161634
15:00+25ne57525 0.0 10151844
18:00+23ne48650 0.0 1016515
21:00+20ne347598 0.0 101784
26 june, sun
sun2600:00+17nne22830 0.0 101822
03:00+16nne38840 0.0 1019136
06:00+17nne39830 0.0 1019243
09:00+23nne47670 0.0 1020610
12:00+25nne69550 0.0 10201644
15:00+26ne57530 0.0 10201600
18:00+24ene35650 0.0 1020655
21:00+19ene33770 0.0 102129
27 june, mon
mon2700:00+16se22835 0.0 102230
03:00+16sse22760 0.0 102211
06:00+18sw23760 0.0 102297
09:00+22sw34630 0.0 1021487
12:00+26wsw34580 0.0 10201191
15:00+29wnw455356 0.0 10181916
18:00+27wnw476886 0.0 1017332
21:00+22nw34850 1.1 101849
28 june, tue
tue2800:00+19nnw36860 0.1 101790
03:00+18n35910 0.1 101790
06:00+19nne59890 0.0 1018295
09:00+21nne68700 0.0 1019763
12:00+22ne67500 0.0 10201329
15:00+22ne56470 0.0 10201542
18:00+20ene57580 0.0 1020677
21:00+15ene47670 0.0 1021123
29 june, wed
wed2900:00+12ene37770 0.0 1023128
03:00+10ene33780 0.0 102338
06:00+13ne23730 0.0 1024127
09:00+17ne34530 0.0 1024924
12:00+19ne44465 0.0 10231872
15:00+20nne45431 0.0 10231957
18:00+19ne34555 0.0 10221089
21:00+14ne33651 0.0 102326